This is the latest recevied weather packets stored in our database for station/object LA9UTA-13. If no packets are shown the sender has not sent any weather packets the latest 10 day(s).
| Time | Temp. | Humidity | Pressure | Rain* | Wind** | Luminosity | Snow |
|---|---|---|---|---|---|---|---|
| 1777793882 | 5.56° C | 64% | 1011.8 hPa | 0 mm | - | 74 W/m² | - |
| 1777792682 | 5.56° C | 64% | 1011.8 hPa | 0 mm | - | 100 W/m² | - |
| 1777791483 | 5.56° C | 65% | 1011.8 hPa | 0 mm | - | 75 W/m² | - |
| 1777790282 | 5.56° C | 65% | 1011.8 hPa | 0 mm | - | 56 W/m² | - |
| 1777789082 | 5.56° C | 65% | 1011.8 hPa | 0 mm | - | 37 W/m² | - |
| 1777787883 | 5.56° C | 65% | 1011.8 hPa | 0 mm | - | 34 W/m² | - |
| 1777785482 | 5.56° C | 65% | 1011.8 hPa | 0 mm | - | 22 W/m² | - |
| 1777784282 | 5.56° C | 66% | 1010.7 hPa | 0 mm | - | 16 W/m² | - |
| 1777783082 | 5.56° C | 66% | 1010.7 hPa | 0 mm | - | 12 W/m² | - |
| 1777782145 | 5.56° C | 66% | 1011.8 hPa | 0 mm | - | 9 W/m² | - |
| 1777781882 | 5.56° C | 66% | 1011.8 hPa | 0 mm | - | 9 W/m² | - |
| 1777780682 | 5.56° C | 67% | 1010.7 hPa | 0 mm | - | 9 W/m² | - |
| 1777779515 | 5.56° C | 68% | 1010.7 hPa | 0 mm | - | 6 W/m² | - |
| 1777779482 | 5.56° C | 68% | 1010.7 hPa | 0 mm | - | 6 W/m² | - |
| 1777778282 | 5.56° C | 70% | 1010.7 hPa | 0 mm | - | 3 W/m² | - |
| 1777777082 | 6.11° C | 70% | 1010.7 hPa | 0 mm | - | 1 W/m² | - |
| 1777776267 | 6.11° C | 73% | 1010.6 hPa | 0 mm | - | 0 W/m² | - |
| 1777775882 | 6.11° C | 71% | 1010.6 hPa | 0 mm | - | 0 W/m² | - |
| 1777774683 | 6.11° C | 73% | 1010.6 hPa | 0 mm | - | 0 W/m² | - |
| 1777773482 | 6.67° C | 74% | 1010.6 hPa | 0 mm | - | 0 W/m² | - |
| 1777773035 | 7.22° C | 76% | 1010.5 hPa | 0 mm | - | 0 W/m² | - |
| 1777772657 | 7.22° C | 76% | 1010.5 hPa | 0 mm | - | 0 W/m² | - |
| 1777772283 | 6.67° C | 75% | 1010.6 hPa | 0 mm | - | 0 W/m² | - |
| 1777771082 | 7.22° C | 76% | 1010.5 hPa | 0 mm | - | 0 W/m² | - |
| 1777769882 | 7.22° C | 81% | 1010.5 hPa | 0 mm | - | 0 W/m² | - |
* Rain latest hour (hover to see other rain measurements)
** Current wind speed in m/s (hover to see current wind gust speed)